Location: Unspecified
(0.0000°N, 0.0000°E)
Time: 11:43:21
(UTC+00:00)

Envisat - Pass Details

Date: 21 January 2018
Orbit: 764 x 766 km, 98.2° (Epoch: 26 April)

Event Time Altitude Azimuth Distance (km) Brightness Sun altitude
Rises 19:29:33 0° 153° (SSE) 3,227 6.2 -18.3°
Reaches altitude 10° 19:32:00 10° 145° (SE) 2,299 5.3 -18.9°
Enters shadow 19:36:06 36° 94° (E) 1,186 3.5 -19.9°
